Regional Weather Roundup
Issued by NWS

Home | Current Version | Previous Version | Graphics & Text | Print | Product List | Glossary On
Versions: 1 2 3 4 5 6 7 8 9 10 11 12 13 14 15 16 17 18 19 20 21 22 23 24 25 26 27 28 29 30 31 32 33 34 35 36 37 38 39 40 41 42 43 44 45 46 47 48 49 50
000
ASUS45 KTFX 021004
RWRMT
MONTANA HOURLY WEATHER ROUNDUP
NATIONAL WEATHER SERVICE GREAT FALLS MT
404 AM MDT THU OCT 2 2014

NOTE: "FAIR" INDICATES FEW OR NO CLOUDS BELOW 12000 FEET WITH NO
SIGNIFICANT WEATHER AND/OR OBSTRUCTIONS TO VISIBILITY.

* THESE STATIONS ARE NOT UNDER NWS QUALITY CONTROL. THEY DO NOT
   REPORT WEATHER SUCH AS PRECIPITATION OR FOG.

MTZ001>007-043-021100-
WEST OF THE DIVIDE
CITY           SKY/WX    TMP DP  RH WIND       PRES   REMARKS
KALISPELL      MOCLDY    43  36  76 S6        29.98S
MISSOULA       CLOUDY    45  37  74 SE6       30.09S
BUTTE          CLEAR     30  27  89 CALM      30.09F
MULLAN PASS    CLOUDY    36  32  85 VRB5      30.05F WCI  32
* LINCOLN      N/A       43  32  65 S3G8       N/A
* LOOKOUT PASS N/A       43  34  71 E7G12      N/A
* POLSON       N/A       45  35  68 SE1        N/A
* RONAN APT    CLOUDY    48  37  66 N/A        N/A
* SEELEY LAKE  N/A       43  33  68 S2G7       N/A
* THOMP F APT  MOCLDY    34  25  70 NE3        N/A
* YAAK HILL    N/A       48  32  54 NE2        N/A
$$

MTZ008-052>055-021100-
SOUTHWEST MONTANA
CITY           SKY/WX    TMP DP  RH WIND       PRES   REMARKS
BOZEMAN        CLOUDY    36  30  79 CALM      30.07S
DILLON         CLEAR     37  27  67 SW10      30.11R WCI  30
W YELLOWSTONE  MOCLDY    34  32  92 SW8       30.17S WCI  27
* THREE FORKS  MOCLDY    37  37 100 N/A        N/A
* BOULDER HILL N/A       40  21  47 S4G9       N/A
* MONIDA PASS  N/A       29  24  82 SE11       N/A   WCI  19
* RAYNOLDS PAS N/A       32  16  52 S16        N/A   WCI  21
* WHITEHALL    N/A       42  27  55 W9G17      N/A
* WISE RIVER   N/A       37  28  70 NW6G11     N/A   WCI  32
$$

MTZ009>010-012-014-046-048-049-054-021100-
EAST SLOPES AND CENTRAL MONTANA
CITY           SKY/WX    TMP DP  RH WIND       PRES   REMARKS
CUT BANK       LGT SNOW  34  32  92 N16       30.02R VSB 1    WCI  24
GREAT FALLS    PTCLDY    43  30  60 SW16      29.93F
HELENA         PTCLDY    46  30  54 N3        30.03S
MALMSTROM AFB  MOCLDY    43  32  65 SW14      29.95F
* CONRAD       PTCLDY    36  34  92 N6         N/A   WCI  31
* DEARBORN     N/A       50  30  46 S6G11      N/A
* EAST GLACIER N/A       30  29  96 NE20G26    N/A   WCI  17
* MONARCH      N/A       40  19  43 SW16       N/A   WCI  32
* PENDROY      N/A       36  35  96 VRB15G20    N/A   WCI  27
* ROGERS PASS  N/A       40  31  70 SE11G20    N/A   WCI  33
* SAINT MARY   N/A       31  30  96 N7G21      N/A   WCI  24
* SWEET GRASS  N/A       32  32 100 VRB17G24    N/A   WCI  21
$$

MTZ011-013-016-021-035-040-045-047-050-051-021100-
NORTH CENTRAL MONTANA
CITY           SKY/WX    TMP DP  RH WIND       PRES   REMARKS
HAVRE          LGT RAIN  43  36  76 NE3       29.95R
LEWISTOWN      CLEAR     41  30  65 SW12      29.95F
* CHESTER      N/A       40  33  76 N10G18     N/A   WCI  34
* DENTON       N/A       38  28  67 SW6        N/A   WCI  33
* JUDITH GAP   N/A       40  26  57 NW1G14     N/A
* LOMA         N/A       41  35  79 NW8        N/A
$$

MTZ017>020-022>027-061-062-021100-
NORTHEAST MONTANA
CITY           SKY/WX    TMP DP  RH WIND       PRES   REMARKS
GLASGOW        MOCLDY    45  36  71 W9        29.83S
GLENDIVE       CLOUDY    41  37  86 S9        29.90S
JORDAN         CLEAR     39  34  82 W7        29.89S WCI  34
SIDNEY         PTCLDY    43  39  86 S9        29.87F
WOLF POINT     PTCLDY    43  37  79 CALM      29.84S
* BEAVER HILL  N/A       43  37  79 S14        N/A
* CIRCLE       N/A       43  38  83 N/A        N/A
* LINDSAY DVD  N/A       46  35  66 SW12G17    N/A
* NAVAJO       N/A       44  38  80 SW10       N/A
* SACO         N/A       48  36  63 SW11       N/A
$$

MTZ028>042-056>058-021100-
SOUTHCENTRAL AND SOUTHEAST MONTANA
CITY           SKY/WX    TMP DP  RH WIND       PRES   REMARKS
BAKER          MOCLDY    43  36  76 SW13      29.93F
BILLINGS       CLEAR     43  28  56 W8        30.00R
LIVINGSTON     CLOUDY    43  27  53 W13       30.03S
MILES CITY     CLOUDY    43  34  71 VRB6      29.93R
* LAUREL APT   CLEAR     37  25  62 N/A        N/A
* ROUNDUP APT  CLEAR     45  25  45 N/A        N/A
* HYSHAM       N/A       44  28  53 W3G11      N/A
* LAME DEER    N/A       43  31  63 W6         N/A
* REED POINT   N/A       48  26  42 SW6        N/A
* ROSCOE HILL  N/A       43  13  29 E9         N/A
$$

REGIONAL REPORTS...DAKOTAS
CITY           SKY/WX    TMP DP  RH WIND       PRES   REMARKS
WILLISTON      CLOUDY    45  41  86 S8        29.84F
DICKINSON      CLEAR     39  36  89 S3        29.89S
BEACH          N/A       41  39  93 SW13      29.90F
CROSBY         CLOUDY    43  43 100 SW8       29.82R
TIOGA          PTCLDY    39  39 100 SW7       29.86S WCI  34
WATFORD CITY   N/A       41  41 100 S7        29.84S
BISMARCK       PTCLDY    39  39 100 SW3       29.89R
GRAND FORKS    MOCLDY    48  45  89 SW6       29.79S
FARGO          PTCLDY    48  45  89 W9        29.83R
BUFFALO SD     CLEAR     37  34  89 W8        29.90R WCI  31
RAPID CITY     CLEAR     39  36  89 NW9       29.99S WCI  33
$$

REGIONAL REPORTS...WYOMING/IDAHO/WASHINGTON
CITY           SKY/WX    TMP DP  RH WIND       PRES   REMARKS
GILLETTE       PTCLDY    41  36  82 SW12      30.00F
SHERIDAN       CLEAR     34  28  79 S7        29.99S WCI  28
CODY           PTCLDY    48  25  41 W5G20     30.03S
YELLOWSTONE LA PTCLDY    30  27  89 VRB5      30.19S WCI  25
SALMON         CLEAR     32  28  85 CALM      30.17R
MULLAN PASS    CLOUDY    36  32  85 VRB5      30.05S WCI  32
SAND POINT     PTCLDY    45  37  74 W6        30.04S
SPOKANE        CLOUDY    46  34  63 W10       30.07R
$$

REGIONAL REPORTS...ALBERTA
CITY           SKY/WX    TMP DP  RH WIND       PRES   REMARKS
LETHBRIDGE     LGT SNOW  32  32 100 W14       30.07R WCI  22

$$




USA.gov is the U.S. government's official web portal to all federal, state and local government web resources and services.